Theta_e
352 347 337 334 333 334 333 334 335 335 336 337 337 338 338 337 336 334 332 329 328 327 317 311 312 312 314 315 319 322 324 328 331 334 336 337 337 337 337 337 337 338 339 339 338 338 337 337 337 337 336 335 334 333 334 334 333 333 333 333 333 334 334 334 334 334 334 334 333 332 328 325 327 329 326 319 314 316 313 309 309 308 307 307 307
351 346 337 334 334 333 333 333 334 336 336 337 338 338 338 336 336 334 332 329 327 326 316 311 312 312 314 315 318 322 325 328 331 334 336 336 337 337 337 337 337 338 338 339 338 338 337 337 337 336 336 335 334 334 334 333 333 333 333 333 333 334 334 333 333 332 332 332 332 330 325 319 319 323 320 314 312 311 310 309 309 308 307 307 307
350 345 336 334 335 334 333 333 333 335 336 337 338 337 337 336 335 333 332 329 327 324 315 311 312 312 313 315 318 322 325 327 331 333 335 336 336 337 337 337 337 337 338 338 338 338 337 337 336 336 335 335 334 334 333 333 333 333 333 333 333 333 331 329 330 330 331 330 328 325 320 316 313 316 315 312 311 309 309 309 309 308 308 308 310
349 344 335 334 335 334 333 332 333 335 336 337 337 337 336 336 335 333 333 330 327 322 314 310 312 312 313 315 318 321 324 327 330 333 335 336 336 337 337 336 336 336 337 337 337 337 336 336 336 335 335 335 334 334 333 333 332 331 331 331 333 332 326 326 329 330 331 330 328 323 314 311 310 311 311 309 308 308 308 308 308 307 310 313 314
349 344 335 335 335 334 334 333 333 334 336 337 337 337 336 336 335 333 333 331 327 321 313 311 312 312 313 314 317 319 323 326 328 333 335 336 336 336 337 336 336 336 336 336 336 336 336 336 336 335 336 335 334 334 333 332 331 330 328 326 328 325 321 326 330 330 332 332 331 328 317 309 309 309 309 310 311 311 310 308 309 308 310 314 315
348 342 336 335 335 334 334 333 333 334 335 337 336 336 336 335 335 334 333 331 326 320 312 310 312 312 312 314 316 318 321 325 327 332 334 335 336 336 337 336 335 334 334 335 336 335 334 334 334 334 334 335 334 333 332 332 331 329 323 316 315 319 325 330 330 330 331 331 331 331 324 314 307 310 315 320 320 318 316 311 310 310 309 311 312
346 341 339 337 335 335 334 333 332 333 334 336 336 336 336 335 335 334 333 330 325 320 312 310 312 312 313 313 315 316 320 323 326 331 333 334 335 335 336 334 333 333 332 333 334 334 333 333 332 330 328 329 330 330 329 327 323 319 313 309 313 323 330 331 330 331 331 331 332 330 325 316 312 318 324 324 321 316 314 311 309 309 309 310 310
345 343 342 338 335 336 334 333 332 332 334 335 335 336 336 335 335 333 332 329 324 319 311 310 312 312 313 313 314 316 318 321 325 330 332 334 334 334 334 333 332 332 332 331 331 331 330 331 329 323 318 318 320 320 318 314 311 309 308 315 324 327 329 329 330 330 330 331 330 329 322 315 319 324 326 325 321 315 311 310 309 310 310 310 310
345 344 344 339 335 336 334 332 331 331 332 334 335 335 335 335 334 332 331 326 322 318 311 310 311 312 313 314 314 315 318 319 323 327 331 332 332 331 331 333 333 333 332 330 327 326 326 327 325 318 312 310 311 311 310 308 308 309 312 324 331 331 331 331 331 332 331 330 330 331 322 317 323 326 326 323 318 313 310 309 310 310 311 311 311
346 344 344 341 336 335 333 330 329 329 331 333 334 335 334 333 332 331 328 323 320 316 310 310 311 312 313 314 314 314 316 318 321 324 326 329 330 329 329 332 333 333 330 325 320 319 319 319 319 314 310 309 308 308 308 308 309 312 317 326 330 330 331 330 331 331 331 331 331 330 323 317 320 321 320 316 311 310 310 310 311 311 311 312 311
346 345 345 344 338 334 332 327 325 325 327 330 331 332 332 330 329 327 323 320 319 314 309 310 310 312 313 314 315 313 315 317 319 320 322 325 326 327 327 329 330 330 326 319 314 312 313 313 313 312 311 309 308 308 308 308 311 317 323 327 329 329 330 330 331 330 328 328 327 324 320 315 313 312 312 310 310 310 310 311 311 312 312 312 312
346 345 345 344 338 333 329 323 321 322 324 326 327 327 326 325 323 321 320 320 317 311 310 310 310 312 313 314 315 314 314 315 316 317 320 321 324 325 325 326 326 326 322 315 311 310 310 310 311 311 311 310 308 309 308 309 314 323 328 329 330 331 331 332 333 333 331 326 321 318 315 312 311 310 311 310 311 311 311 312 311 312 312 312 312
347 346 345 342 336 331 324 320 319 320 322 322 321 320 320 319 320 320 320 319 313 310 310 310 310 311 312 314 314 314 313 313 314 314 317 320 323 324 323 322 323 323 319 314 311 310 310 310 310 310 310 309 309 309 308 310 316 324 330 332 332 332 332 333 333 333 333 327 317 315 313 311 311 310 311 311 311 312 312 311 312 312 311 312 311
347 347 346 340 335 330 320 318 318 318 319 318 318 317 318 319 320 320 319 315 311 311 310 310 311 311 312 314 314 314 313 313 313 313 316 319 321 322 321 320 321 320 317 314 313 310 309 309 309 309 309 309 308 309 309 313 318 323 328 331 332 332 332 333 333 332 331 325 315 312 312 311 311 311 311 311 312 312 312 312 312 312 311 312 311
348 347 346 339 335 331 321 317 317 317 318 317 317 317 317 318 318 318 315 313 312 311 310 310 311 311 313 313 314 314 313 313 313 312 315 319 320 320 320 319 319 318 317 316 314 311 309 309 309 309 309 309 309 309 311 316 320 323 327 330 331 332 332 333 334 333 328 319 312 312 312 312 312 312 312 312 312 312 312 312 312 312 312 312 311
349 348 344 338 335 334 327 320 318 318 318 316 316 316 316 316 316 315 314 314 312 311 311 310 311 312 313 313 313 313 312 312 312 312 315 319 320 319 320 319 318 318 319 319 316 313 310 309 309 310 309 309 310 310 311 317 322 325 327 330 331 331 331 333 333 333 328 318 313 313 311 312 312 312 312 312 312 312 312 312 312 312 312 311 310
349 348 342 337 336 335 332 326 322 320 318 317 316 315 316 316 316 316 315 314 313 313 312 311 312 313 314 314 313 313 313 312 312 313 314 318 321 319 319 319 319 320 321 321 318 315 312 310 309 310 310 310 310 310 311 315 321 325 326 329 331 333 334 334 334 334 330 320 312 312 312 312 312 312 312 312 312 312 312 312 312 311 311 310 308
349 347 340 336 337 334 333 330 325 321 318 318 317 315 316 316 315 315 315 315 315 314 313 313 313 313 314 315 314 313 313 312 312 313 314 316 320 320 319 319 320 321 322 322 320 317 314 310 309 310 310 310 311 311 312 314 317 321 323 325 328 331 332 332 332 331 327 318 313 313 312 313 312 313 312 312 313 312 312 311 311 310 309 308 307
347 345 339 336 337 333 332 331 325 321 320 321 319 317 316 316 314 314 314 314 315 315 314 314 314 314 315 315 316 316 314 313 312 312 314 315 318 320 319 319 320 321 322 323 321 320 316 312 309 310 310 310 311 311 311 312 314 317 319 322 326 330 331 331 331 326 320 315 313 313 312 313 312 312 312 311 312 312 311 310 309 308 307 307 306
346 344 341 338 338 335 334 332 329 325 322 323 322 321 321 319 317 316 316 316 317 315 315 315 315 316 317 317 317 319 317 314 313 313 313 314 315 318 319 319 320 321 322 322 323 322 318 314 311 309 310 310 311 311 312 312 313 314 317 323 329 332 333 334 332 324 318 316 313 313 312 312 312 312 312 311 312 311 310 309 308 307 307 307 307
345 343 342 341 340 339 337 336 336 333 327 324 324 325 325 324 322 322 321 321 321 319 318 317 319 321 321 321 325 328 326 321 317 314 314 314 314 316 318 319 320 321 321 321 323 323 321 318 314 310 309 310 311 310 311 311 313 314 317 323 327 331 333 334 332 323 317 315 312 312 311 311 311 311 311 311 311 309 309 308 307 307 307 308 308
344 343 341 341 342 341 340 339 340 339 335 331 329 326 326 327 327 329 327 325 324 321 320 322 326 328 328 330 334 336 334 331 328 321 319 317 315 315 315 318 320 321 321 320 322 323 322 320 317 314 309 309 309 310 311 311 313 316 318 322 323 328 334 334 331 321 312 312 311 311 310 311 310 310 311 310 309 309 308 308 308 308 308 308 308
342 343 342 342 342 342 342 342 342 341 340 339 337 331 326 327 327 331 332 330 326 323 324 328 331 332 333 335 337 336 336 337 335 332 327 322 320 317 314 317 319 320 321 320 321 324 323 321 319 317 314 311 310 310 309 310 314 318 320 321 320 326 332 333 330 320 311 310 309 309 309 309 310 310 310 309 309 308 308 308 308 308 307 307 307
342 343 341 341 342 343 342 341 342 341 340 340 340 337 330 329 330 331 332 332 329 328 329 332 333 334 334 335 334 334 335 336 336 337 334 329 324 319 315 315 317 319 321 321 321 323 325 323 320 318 318 316 316 318 314 311 317 321 323 322 325 330 331 332 330 320 311 309 308 309 309 309 310 310 310 309 308 308 308 308 308 307 307 308 309
343 342 341 342 343 343 342 340 341 340 340 340 340 339 335 334 336 335 334 333 333 332 332 333 334 335 335 333 332 333 335 336 335 336 336 333 328 322 318 315 315 319 320 321 321 323 325 324 322 321 324 326 327 330 325 318 321 327 329 327 330 334 332 332 330 320 312 310 309 309 309 310 310 310 310 309 308 307 307 308 308 307 308 310 312
342 342 342 343 342 342 341 340 340 340 340 339 339 339 338 338 338 338 337 336 335 333 331 333 334 335 335 334 333 333 335 335 334 334 335 335 332 328 323 317 315 317 320 323 322 322 324 324 324 324 330 333 333 334 331 327 328 332 331 329 330 333 332 333 330 323 316 312 311 311 310 310 310 310 310 308 308 307 307 308 308 309 311 313 315
342 343 342 341 341 341 340 339 339 340 339 339 339 339 339 339 338 339 338 338 337 333 332 334 335 335 335 335 335 335 335 334 333 333 333 334 334 332 330 324 317 318 323 328 328 323 322 323 324 327 332 334 334 334 333 331 332 333 330 330 333 333 332 333 330 325 319 314 312 312 311 311 310 310 309 308 307 307 308 308 310 312 314 316 317
341 341 341 341 341 340 340 339 338 339 339 339 339 339 339 339 339 339 339 338 337 335 335 336 335 335 335 335 335 335 335 334 333 334 334 333 333 334 333 330 326 325 327 331 334 328 324 324 322 328 334 334 333 333 332 332 333 333 331 331 333 332 332 333 331 327 321 317 315 313 311 310 310 309 308 308 307 308 309 311 313 315 317 318 319
340 341 341 341 341 340 339 338 337 337 338 338 339 338 338 338 338 338 338 337 337 336 336 337 336 336 336 335 334 334 333 333 333 334 334 333 333 334 332 331 331 330 330 332 334 331 330 330 326 330 335 334 333 331 332 332 333 333 331 332 333 332 333 333 331 329 327 324 320 315 311 309 309 308 308 307 307 309 311 313 316 317 318 319 320
340 340 341 341 341 340 339 338 338 337 337 338 337 337 337 337 338 337 336 336 336 337 336 337 336 336 336 335 334 333 333 332 333 333 333 334 333 333 332 331 331 331 331 332 333 332 333 333 332 334 335 333 332 331 332 332 332 333 332 332 332 332 332 332 331 331 329 328 324 315 310 309 308 307 307 308 310 311 314 316 317 318 319 321 322
340 340 340 340 340 340 339 339 339 338 338 337 336 336 336 336 336 336 335 334 335 336 335 335 335 335 335 335 334 334 333 333 332 332 333 333 332 332 332 332 331 330 331 332 332 332 333 334 334 335 334 333 332 330 332 332 331 332 333 333 332 331 332 331 331 331 330 329 328 317 309 309 307 307 308 309 312 313 316 317 318 320 322 323 323
340 340 340 339 339 339 339 338 337 337 337 336 336 336 335 334 335 335 334 333 334 335 335 333 333 334 334 333 334 333 332 332 332 332 333 333 332 332 332 332 332 331 330 332 332 332 333 333 333 333 334 333 332 330 331 332 331 332 333 332 332 332 332 331 330 331 330 330 329 317 309 310 309 309 311 312 314 315 317 318 320 322 324 325 324
338 339 339 339 339 338 337 336 335 335 335 335 334 333 333 333 333 333 333 333 333 334 333 333 333 334 334 332 331 331 331 331 332 332 333 334 333 332 332 332 332 331 329 331 333 332 331 330 330 332 333 333 331 331 331 331 332 332 333 332 332 332 332 332 330 330 330 330 328 318 311 312 312 313 314 315 316 317 319 319 321 323 325 326 326
337 338 339 339 339 337 335 335 335 334 334 334 334 333 333 332 331 333 333 333 333 334 334 334 335 335 335 333 332 331 331 331 331 330 332 334 334 333 333 332 331 331 329 328 332 332 328 325 326 330 332 331 331 332 331 332 332 333 333 333 332 331 332 332 330 330 330 329 329 324 319 315 313 315 316 318 320 320 321 322 324 324 326 328 328
336 337 339 339 338 337 335 334 335 336 335 334 334 334 333 331 332 333 334 335 335 336 337 336 336 336 335 334 333 332 332 332 331 330 332 333 333 333 333 332 331 331 330 329 332 331 328 324 323 327 329 329 330 332 332 332 332 333 333 333 332 332 332 332 330 330 329 329 330 330 328 322 318 319 320 321 322 323 324 325 326 327 328 328 328
338 337 337 336 337 336 336 335 335 336 336 335 335 334 333 332 334 335 335 335 335 336 338 337 335 336 336 336 334 333 332 332 332 331 331 331 331 332 332 331 331 331 331 331 332 331 328 324 322 325 328 328 330 331 332 332 333 333 333 332 332 332 332 332 331 329 329 329 330 331 331 328 326 326 327 325 323 324 325 326 327 327 327 328 328
341 339 337 337 337 335 336 337 336 337 337 336 337 335 335 334 335 335 335 336 337 337 338 337 336 335 336 337 336 335 333 332 332 331 330 330 330 332 331 331 331 329 328 330 331 330 329 327 326 327 329 330 331 331 332 333 333 333 333 332 332 332 332 332 331 329 329 329 329 330 331 331 330 330 330 328 327 325 325 325 326 326 326 326 327
341 341 340 341 339 337 338 339 338 338 337 337 337 336 337 337 336 336 336 337 338 337 336 337 338 336 335 337 336 336 335 333 332 331 330 330 331 331 331 331 331 329 327 327 328 329 330 330 329 329 331 332 332 332 332 333 332 332 332 333 333 332 331 332 331 329 329 329 328 329 331 331 331 331 330 329 329 327 326 325 324 324 324 324 326
342 342 341 341 341 340 340 340 339 339 339 338 337 337 337 337 337 336 338 338 338 338 337 337 339 337 336 337 336 336 336 334 333 332 331 330 331 332 331 330 330 329 328 326 327 329 329 331 331 331 331 332 333 333 332 332 332 331 331 332 333 331 331 332 331 329 329 328 328 328 330 330 330 330 329 329 329 328 327 325 323 321 322 323 325
341 342 342 341 341 341 341 340 340 340 340 339 338 338 338 338 338 338 339 339 339 339 339 338 339 338 337 337 336 335 334 333 333 332 332 331 330 330 330 330 329 329 328 326 327 328 329 330 332 332 331 330 330 332 332 332 331 331 332 332 331 331 331 331 331 329 329 328 328 328 328 328 330 330 329 329 329 328 328 326 323 321 322 323 324
341 342 342 341 341 341 340 340 339 339 338 338 338 338 338 339 339 339 339 339 339 339 339 339 339 338 337 336 336 335 334 333 332 333 332 331 330 329 330 329 329 329 328 327 328 329 329 330 330 330 330 329 328 328 330 331 331 331 331 332 331 331 330 331 331 330 329 329 328 329 328 328 330 330 330 330 329 328 328 327 325 325 325 323 324
341 341 341 340 341 340 339 339 338 337 336 336 336 337 338 338 339 339 338 338 339 339 339 339 339 339 338 336 336 336 336 333 332 333 333 333 331 330 330 330 329 330 330 328 328 330 330 330 328 327 327 328 328 327 329 329 330 330 331 332 332 330 329 330 331 330 330 329 329 329 328 328 329 330 330 330 329 328 328 328 327 327 327 324 323
340 340 340 340 339 339 338 337 337 337 338 337 336 336 338 338 338 339 338 338 337 337 337 336 336 336 336 336 336 336 336 334 333 333 332 332 332 331 331 330 330 330 330 329 328 328 329 329 328 327 325 325 326 327 327 327 328 329 330 332 332 331 330 330 331 331 330 330 330 330 329 328 330 330 331 329 328 328 328 329 328 327 328 325 322
339 338 338 339 338 338 338 338 337 338 339 338 336 336 336 336 336 336 336 335 334 334 334 334 334 335 335 335 335 335 335 334 334 333 332 332 332 332 332 331 330 330 330 329 329 328 328 328 329 328 325 325 325 326 326 327 328 329 329 331 331 331 331 331 330 330 330 330 330 330 329 329 330 330 330 329 328 328 328 329 329 327 327 326 325
337 337 337 337 337 337 337 338 338 338 338 338 338 337 336 336 336 336 336 335 335 334 335 336 336 337 336 334 334 334 335 335 334 333 332 332 332 332 332 331 330 330 330 330 330 329 328 328 328 328 327 326 326 326 326 327 328 328 329 330 331 331 331 330 330 329 330 330 330 330 330 330 330 330 330 329 328 329 328 328 329 328 327 328 327
335 335 335 336 336 336 336 337 337 337 337 337 337 337 337 337 337 337 337 337 337 337 338 337 337 337 336 334 333 333 334 335 335 333 332 332 333 332 332 332 331 330 330 330 330 329 329 328 328 328 328 328 327 326 326 327 327 328 329 329 329 330 330 330 330 330 330 330 329 330 330 329 329 329 329 329 329 328 328 328 329 328 328 328 327
334 334 334 334 335 335 336 336 336 336 336 336 336 337 337 337 337 337 337 338 338 338 338 337 336 336 335 335 334 333 334 335 334 334 333 332 333 333 332 332 332 331 330 330 329 329 329 329 328 328 329 329 328 327 326 327 327 328 329 329 329 329 329 329 330 331 330 330 329 330 331 330 329 329 329 329 328 328 328 328 328 328 328 328 327
331 332 332 332 333 333 333 334 334 334 334 334 335 335 336 337 337 337 337 338 337 337 337 337 336 336 336 336 335 335 335 334 334 333 333 333 333 333 333 333 332 331 331 331 330 329 328 329 329 329 329 329 329 328 327 327 327 327 328 329 329 329 329 328 328 329 331 330 330 330 330 330 329 329 329 329 328 328 328 328 328 328 327 327 327
327 328 328 329 329 329 329 330 331 331 332 332 333 333 334 335 336 337 337 337 337 336 336 337 337 337 336 335 336 336 335 335 334 334 333 333 333 333 333 333 332 332 331 331 331 329 329 329 331 331 330 330 329 328 328 327 326 326 327 329 329 329 329 329 327 328 330 331 331 330 329 330 329 329 329 329 328 328 328 328 328 327 327 327 326
324 324 325 325 325 325 326 326 327 328 330 331 331 332 332 333 334 335 335 336 336 336 336 336 337 336 336 336 336 336 335 335 335 335 334 333 333 333 332 332 332 332 332 331 331 330 330 330 331 332 332 331 330 329 329 329 327 326 326 327 328 328 329 329 328 328 329 330 331 330 330 330 330 329 329 329 329 329 328 328 327 327 327 327 326
323 323 323 324 324 324 324 325 325 325 326 327 329 330 331 331 332 332 333 333 334 333 334 334 335 335 335 336 336 335 335 335 334 335 335 333 333 332 331 330 331 332 332 331 331 331 331 331 332 332 332 332 331 330 329 329 329 328 327 326 326 326 328 329 328 328 328 328 329 330 330 331 330 329 329 329 329 329 329 328 327 327 327 327 326
Wind_Speed
6 11 18 17 15 15 15 16 16 16 16 16 16 15 15 14 12 11 11 9 9 9 9 11 13 14 14 15 15 15 16 18 19 18 18 17 17 16 16 16 16 16 15 15 15 15 15 14 13 13 12 12 13 13 13 13 13 13 13 13 14 15 15 16 15 15 14 14 14 14 13 12 11 11 12 13 13 11 11 12 11 12 15 15 15
8 12 19 18 16 15 15 16 16 16 16 16 16 16 15 14 12 11 11 9 9 9 9 12 13 14 14 14 15 15 16 18 18 17 18 17 16 16 16 16 16 15 15 15 14 14 14 14 13 12 12 12 13 13 13 13 13 13 13 14 15 16 17 18 18 17 15 13 12 12 11 11 11 10 11 12 11 10 10 10 11 14 16 16 15
10 12 20 18 16 15 15 15 15 16 16 16 16 15 15 13 12 12 11 9 8 8 9 12 13 13 13 14 15 15 16 17 18 17 17 17 16 15 16 15 15 14 14 14 13 14 14 14 12 12 12 13 13 13 14 14 14 14 15 15 16 18 19 20 20 21 19 17 13 11 10 9 10 10 10 10 9 9 9 10 14 17 17 16 16
11 12 20 18 16 15 14 15 15 15 15 16 16 15 15 13 13 12 10 9 8 8 10 11 12 13 13 13 14 14 15 17 17 17 17 17 16 15 16 15 14 14 13 13 13 13 13 13 12 12 13 13 13 13 14 14 14 14 15 15 15 17 18 20 22 23 22 21 18 15 12 11 10 10 9 9 9 10 11 14 17 18 16 17 17
11 14 20 19 17 15 14 14 14 15 15 16 16 16 15 13 13 11 10 8 7 8 10 11 12 13 13 13 13 14 15 16 17 17 17 17 16 15 15 14 14 13 13 13 13 13 13 13 12 12 12 12 12 12 13 13 13 12 13 13 13 15 18 21 22 22 22 21 19 15 12 11 10 10 10 11 12 13 15 17 19 18 17 18 19
8 14 19 19 18 16 15 14 14 14 15 15 15 15 14 14 12 11 9 8 7 8 10 11 12 12 13 13 13 13 14 15 17 17 17 16 16 15 14 13 13 12 12 12 12 12 11 11 11 11 11 10 10 10 11 11 10 10 11 12 14 18 21 21 21 21 20 19 16 10 10 9 10 12 13 14 15 16 17 18 19 19 19 18 19
7 14 17 17 18 16 15 14 14 14 14 15 14 15 14 13 12 10 9 7 6 8 10 10 11 12 12 12 12 13 14 15 16 17 16 16 15 14 13 12 12 11 11 10 10 11 11 10 10 9 9 9 8 9 9 9 10 11 12 15 19 22 23 22 22 20 18 18 14 7 6 8 12 15 15 15 17 17 17 18 18 18 19 19 19
7 13 14 16 19 16 15 13 13 13 13 14 13 14 13 12 11 9 8 6 6 8 10 10 11 12 12 12 11 12 13 15 16 16 15 15 13 13 12 11 10 10 10 8 8 8 9 9 9 9 10 10 10 10 10 11 12 14 16 21 24 23 22 21 20 18 17 16 10 5 5 10 14 15 14 15 16 16 17 17 18 18 18 18 18
11 15 12 14 17 15 15 13 13 13 12 12 12 12 12 11 9 8 7 6 6 8 10 10 11 11 11 11 11 11 12 14 15 16 14 13 12 11 10 9 9 9 9 7 6 6 7 7 8 9 11 12 12 13 13 14 15 17 21 25 25 23 22 19 17 17 17 14 11 8 8 12 15 15 15 16 16 17 17 16 17 17 17 17 17
14 18 12 9 15 15 13 12 12 11 11 11 11 11 10 9 8 7 6 5 6 9 10 10 10 10 11 11 11 11 11 13 14 14 13 12 11 9 8 8 8 9 8 7 8 8 8 8 8 10 11 13 14 15 15 15 17 21 23 25 26 24 22 19 17 16 16 15 13 11 10 13 16 16 16 16 17 17 16 15 16 15 15 16 17
16 18 13 8 13 15 13 12 11 10 10 10 9 9 8 8 7 6 5 6 7 9 10 10 10 10 11 11 11 11 10 11 12 13 12 12 11 10 8 8 9 9 7 8 10 10 10 9 9 9 11 13 15 16 15 15 19 23 25 26 26 24 22 20 19 14 12 12 11 10 11 15 17 17 16 16 16 15 15 15 14 14 15 16 16
17 15 11 9 14 14 12 11 10 10 10 9 8 8 7 7 6 6 6 6 8 9 10 10 10 10 10 11 11 10 9 9 10 11 11 12 11 10 9 9 10 9 8 9 11 11 11 11 10 9 10 13 15 16 15 15 20 25 27 27 25 23 21 21 20 14 12 10 9 11 14 17 17 16 15 15 15 14 14 14 13 14 14 14 14
17 13 8 9 16 15 13 12 11 10 9 9 7 7 6 6 6 6 6 7 7 8 10 10 10 10 10 10 10 10 9 8 8 9 10 12 11 11 10 10 10 9 9 10 11 12 12 12 11 10 10 12 14 14 14 16 21 25 27 26 24 23 21 20 16 13 12 9 10 13 15 16 16 15 15 14 14 13 13 13 12 13 12 12 12
16 14 9 12 16 15 13 12 11 11 9 8 7 6 6 6 7 7 7 7 7 8 9 9 10 10 10 10 10 10 10 8 8 8 10 12 12 11 10 10 10 10 10 10 11 12 12 13 12 12 11 12 13 13 15 18 21 24 27 26 25 24 22 19 12 11 11 9 11 13 14 15 14 14 14 13 13 12 12 11 11 11 11 10 11
14 12 12 15 16 14 14 12 11 10 9 8 7 7 7 7 7 6 6 6 7 7 7 8 9 9 10 10 10 9 10 9 8 9 10 13 13 11 10 10 10 10 10 10 11 11 11 12 13 13 13 13 13 13 16 20 23 25 26 25 24 22 21 19 12 10 8 9 12 12 12 12 13 13 12 12 11 11 10 10 10 10 9 9 10
11 10 13 16 15 13 13 12 12 10 9 8 7 7 7 7 6 6 6 6 6 7 7 8 8 9 9 9 10 10 10 9 7 8 11 12 13 11 10 10 11 11 10 10 10 10 10 11 12 13 13 14 14 14 16 21 24 25 24 24 23 20 19 17 11 8 5 7 10 11 11 10 10 11 10 10 9 9 9 9 8 8 8 8 9
12 10 15 18 14 12 12 12 12 11 10 9 8 8 7 7 6 6 6 6 6 6 7 6 6 7 8 8 9 10 9 9 8 7 10 12 12 12 10 9 11 11 10 9 9 9 9 10 11 12 13 14 14 14 16 18 20 22 23 23 23 21 19 16 12 9 5 6 10 10 10 9 9 8 8 8 7 7 8 7 7 7 7 7 7
14 12 16 19 13 13 13 13 13 11 11 10 9 8 8 8 7 7 6 7 6 6 6 5 5 5 6 7 9 9 9 9 8 7 8 11 12 12 11 10 9 10 10 9 9 9 9 9 10 11 13 14 14 14 15 16 17 19 21 21 21 19 17 14 10 8 7 7 8 8 8 7 7 7 7 6 6 6 6 6 6 6 6 6 6
17 17 20 18 14 15 14 13 13 12 11 10 10 10 9 9 8 8 7 7 6 6 5 4 4 3 4 6 7 8 8 8 8 7 7 9 11 11 11 11 10 9 9 9 9 9 8 9 9 11 12 13 14 14 15 16 16 18 19 19 19 18 16 13 6 5 7 6 7 7 7 6 5 5 5 5 4 5 5 4 5 5 5 5 6
17 22 21 16 15 14 12 12 12 12 11 10 10 10 10 10 9 9 8 8 8 7 6 5 4 3 4 5 4 5 5 5 6 7 6 7 10 11 11 11 11 9 9 9 9 9 8 8 9 10 11 12 13 13 14 15 16 17 18 19 19 18 16 13 7 5 4 5 7 7 6 6 5 5 5 4 4 4 4 3 4 5 4 5 6
15 21 19 16 16 13 11 10 10 10 10 10 10 10 10 10 10 9 9 8 8 8 7 6 5 4 4 5 5 6 4 2 4 5 5 6 7 9 11 11 11 10 9 9 9 9 8 8 8 8 9 10 11 12 13 14 15 15 16 16 16 17 15 8 7 6 5 5 6 7 6 6 6 5 5 4 4 3 3 3 4 4 4 4 5
15 18 17 17 15 11 11 10 10 9 9 9 9 9 9 10 11 9 8 8 9 9 8 7 5 4 4 5 4 1 2 2 0 1 2 4 4 6 9 11 12 11 10 9 9 9 8 8 8 8 9 9 9 10 11 12 13 13 13 12 12 14 12 5 5 5 5 6 5 5 5 6 6 6 5 5 4 4 3 3 3 4 4 4 5
17 17 15 14 11 10 12 11 11 11 10 9 9 10 9 9 9 8 7 7 9 9 9 7 4 3 3 2 3 3 4 2 1 2 2 3 3 5 7 9 11 12 11 10 10 10 9 9 9 10 10 10 10 8 8 10 11 10 9 8 10 11 10 4 6 5 5 5 5 5 5 6 5 6 5 5 4 4 4 3 3 4 4 5 6
13 13 12 11 11 12 12 10 10 11 10 9 10 10 9 9 8 8 8 8 8 9 8 6 4 4 4 4 4 5 7 5 3 3 3 4 4 4 6 8 11 12 12 10 10 11 10 10 10 11 10 10 11 8 5 8 9 7 6 7 11 10 7 3 8 6 4 4 5 5 5 6 5 5 5 4 4 4 4 3 4 5 5 5 6
9 10 12 13 14 13 10 9 8 9 10 9 9 9 9 9 8 8 9 9 8 7 6 5 6 8 6 5 6 8 9 7 7 7 6 5 5 4 4 7 9 11 12 10 10 10 11 11 11 10 9 7 8 6 1 2 4 4 3 6 10 8 5 5 9 6 4 4 5 5 5 5 5 5 5 4 4 4 4 4 5 5 6 6 7
8 12 14 13 13 11 10 9 8 10 10 9 9 8 8 9 9 8 9 9 7 6 5 6 7 9 9 9 10 9 10 10 10 10 8 7 6 4 4 5 9 10 11 9 9 9 10 10 11 9 8 8 9 7 4 3 2 1 2 5 8 7 7 7 10 7 3 4 5 5 5 5 5 5 5 4 5 5 5 5 5 6 6 7 7
10 14 14 12 12 11 10 9 8 9 10 10 9 8 8 8 9 9 9 8 8 7 8 9 9 11 11 11 11 10 11 12 12 11 10 8 7 6 3 3 7 8 9 9 8 9 10 10 10 8 7 7 7 7 7 3 3 4 5 6 7 5 7 8 10 8 4 5 6 6 6 5 5 6 5 5 5 6 5 6 6 6 6 7 7
11 13 13 12 11 10 9 8 7 8 9 8 8 8 7 7 9 9 8 7 8 9 9 10 11 12 12 11 11 11 11 11 12 12 11 10 9 8 5 3 4 5 7 8 9 10 10 9 10 9 6 4 6 7 7 7 7 7 7 7 6 6 6 5 9 9 5 5 6 6 6 6 5 6 6 6 6 6 6 6 6 6 6 6 7
11 12 12 11 10 10 9 7 7 8 7 7 6 7 7 7 8 7 6 6 7 8 8 10 11 11 12 11 11 12 12 11 12 13 12 11 9 9 8 7 7 9 9 10 13 11 10 10 10 8 5 6 9 8 7 10 10 10 9 8 8 10 9 7 7 8 7 5 5 6 6 5 5 6 6 6 6 6 6 6 6 6 6 6 6
11 13 12 11 10 10 10 8 6 7 7 6 5 6 6 6 5 5 5 5 5 6 7 8 10 10 11 10 10 12 12 11 12 12 13 11 10 11 11 9 10 13 14 15 16 13 12 13 11 8 8 9 9 9 9 10 11 10 8 8 9 10 9 7 5 7 10 6 3 4 5 4 4 5 5 5 6 6 6 6 5 6 6 6 7
13 14 13 12 10 9 10 9 8 8 7 6 6 6 6 6 3 3 4 4 5 6 6 7 8 10 10 10 10 11 12 12 12 12 12 11 12 12 12 12 12 13 15 18 18 15 15 15 14 13 13 12 11 12 11 10 11 9 9 8 7 6 7 6 5 6 11 8 6 6 4 3 3 4 4 5 5 5 5 5 5 5 6 7 7
13 13 11 10 9 8 8 8 7 8 7 6 6 5 4 4 2 2 3 4 6 7 6 6 7 8 9 9 9 10 11 11 12 12 11 11 11 12 12 13 14 14 16 18 18 16 17 17 17 16 16 16 15 14 12 12 11 9 10 9 8 8 7 6 8 8 11 11 9 7 5 5 4 4 4 4 4 5 5 5 5 6 6 7 8
10 10 9 7 7 6 6 7 6 7 7 5 4 4 3 2 3 3 3 4 5 6 5 5 6 7 7 7 7 9 10 10 12 12 12 10 11 11 11 13 14 15 16 17 15 16 18 17 16 17 18 18 16 14 13 13 12 11 11 10 11 11 8 8 10 10 11 13 9 5 5 5 6 5 5 5 5 5 5 5 5 5 5 6 6
10 9 7 6 6 5 6 6 6 6 6 5 4 4 4 4 3 3 2 3 5 5 4 4 5 7 7 7 8 8 8 9 11 12 13 13 13 12 11 13 14 14 15 16 15 16 17 16 15 18 20 18 17 15 14 14 14 14 13 12 13 11 11 11 10 10 11 12 9 4 4 5 6 6 6 5 5 5 5 5 4 4 4 4 5
10 10 8 7 6 6 6 6 6 5 5 4 4 4 5 5 4 3 3 4 4 3 4 3 4 6 7 7 8 8 8 8 9 11 13 14 14 13 12 13 13 14 15 16 16 17 17 17 17 18 20 19 18 15 14 15 15 15 15 13 13 11 13 12 11 10 10 11 10 7 5 6 6 6 6 6 6 6 6 6 4 4 4 4 4
8 8 8 8 7 6 5 5 5 4 4 4 4 4 4 5 4 4 3 4 5 3 4 5 4 6 8 8 8 8 8 8 8 9 12 14 14 15 14 13 13 13 14 14 16 17 16 17 18 18 19 20 19 16 15 16 16 15 15 13 12 12 13 14 13 11 10 12 11 10 8 7 7 7 7 6 6 7 7 6 5 5 5 5 5
8 7 7 7 6 6 6 5 4 3 3 4 5 5 5 4 4 5 4 5 6 5 7 7 6 5 8 10 8 7 7 8 8 8 10 12 14 15 14 13 12 13 13 14 16 16 15 16 18 18 18 18 18 17 16 17 18 16 15 14 14 14 13 13 12 11 11 12 9 10 11 9 8 8 8 7 7 8 8 7 6 6 6 6 7
8 7 6 5 5 5 5 4 4 3 3 4 4 4 4 4 5 5 6 6 7 7 8 8 8 7 9 11 10 8 6 7 7 8 10 11 13 14 14 14 14 14 14 15 15 15 14 15 17 17 17 16 17 18 19 19 19 17 16 15 15 15 13 13 12 12 12 11 10 11 12 11 11 10 9 8 8 8 8 8 7 7 7 7 7
7 6 5 4 4 3 3 3 4 4 3 4 4 4 3 4 5 5 7 7 7 8 8 9 10 9 9 9 9 8 7 7 7 9 10 10 12 14 15 15 15 15 15 16 15 15 15 15 16 17 18 19 18 19 20 19 18 17 17 15 15 14 13 13 13 13 13 12 12 11 9 10 11 11 10 9 9 8 8 9 8 7 7 7 7
6 6 5 3 3 2 2 2 3 5 4 3 3 3 3 5 5 6 6 5 5 7 8 9 10 9 9 8 9 8 8 8 8 10 11 10 11 13 15 16 17 17 17 16 16 16 15 15 17 18 20 21 21 20 19 19 18 16 16 15 15 14 13 13 13 14 13 14 14 11 10 12 12 12 11 10 11 10 9 9 9 8 8 8 8
6 6 5 4 3 3 3 2 2 3 4 4 4 3 3 6 7 7 6 4 5 7 8 9 9 10 8 7 9 8 7 8 9 10 12 12 12 13 15 17 18 18 17 15 15 16 16 17 19 19 19 21 22 21 19 18 17 15 15 16 16 16 14 12 13 14 13 14 15 14 15 16 14 14 14 12 11 10 10 10 9 9 9 8 9
8 6 5 4 3 3 3 2 1 2 2 4 5 4 4 6 7 7 5 4 5 6 7 8 9 9 9 8 9 7 6 8 10 11 12 12 13 14 16 18 19 19 18 16 16 18 19 19 20 20 21 21 22 21 20 20 18 16 16 15 16 18 17 15 15 15 14 15 15 15 18 18 15 15 15 14 12 11 10 10 10 10 10 9 9
7 6 6 5 4 3 2 1 1 1 1 0 2 3 4 5 6 6 6 5 6 7 7 9 9 9 10 10 9 9 8 8 10 12 12 12 13 15 16 18 18 18 19 18 19 20 21 22 22 22 23 23 23 22 22 21 20 19 17 15 15 16 16 17 19 17 16 17 17 16 17 17 15 15 14 14 13 11 10 10 10 10 11 11 10
4 4 4 5 5 3 2 2 0 0 1 2 1 1 2 4 6 6 7 7 7 8 9 9 9 9 9 9 10 10 10 10 10 11 13 13 13 14 16 18 18 18 19 20 21 21 21 23 23 24 25 25 24 23 23 22 22 21 19 17 15 13 13 15 18 19 18 18 19 18 16 16 17 16 14 13 12 11 12 11 11 12 12 12 11
3 3 3 3 5 4 3 3 1 0 1 2 2 1 2 3 4 5 6 6 6 6 7 6 7 8 8 9 10 9 9 10 11 11 13 14 14 14 16 18 19 19 20 21 22 22 23 23 23 24 25 26 25 24 24 24 24 24 23 19 15 12 13 12 14 17 19 20 20 18 17 18 18 18 15 13 13 14 15 13 12 12 13 13 12
2 2 2 2 3 2 3 3 2 2 2 2 2 2 3 3 3 4 5 5 5 5 7 7 7 8 9 10 10 10 10 11 11 12 13 14 15 16 17 18 19 20 21 21 22 23 24 24 24 25 25 26 25 25 25 24 25 26 26 23 18 15 14 12 11 14 17 21 20 17 18 20 17 17 17 14 14 16 16 16 15 14 15 13 12
1 0 1 2 2 2 1 2 2 2 3 4 5 2 2 4 4 5 6 6 7 7 8 9 9 9 10 11 10 10 11 12 13 14 15 16 16 17 19 19 20 20 21 22 23 24 25 25 26 27 26 26 26 26 26 25 25 26 26 25 24 21 18 14 14 13 15 19 22 21 21 20 16 17 19 16 16 17 17 18 17 16 16 14 13
2 1 2 2 2 2 3 4 4 5 5 5 6 4 3 4 3 4 7 8 9 9 9 9 10 10 10 10 10 10 11 13 15 16 17 18 17 17 19 20 20 21 22 24 25 25 26 27 28 29 28 28 27 27 26 26 27 27 26 25 26 25 23 20 17 16 15 17 22 25 24 21 18 20 21 17 18 18 18 19 18 17 17 16 16
5 4 4 3 3 2 2 2 3 4 4 5 7 7 5 5 4 5 6 8 9 10 10 9 10 11 12 12 12 12 13 13 14 15 16 17 17 18 19 20 20 21 22 24 26 27 27 28 29 30 30 31 30 29 28 28 29 29 28 26 25 25 25 24 20 18 18 17 19 24 26 24 21 23 22 19 20 21 20 20 18 17 17 17 16
6 6 6 7 6 6 7 8 7 5 4 4 5 7 7 7 8 8 8 9 10 11 10 9 10 12 12 13 13 14 16 15 14 15 15 16 17 18 20 20 20 21 22 23 25 27 28 29 29 30 32 33 33 32 30 29 29 30 30 29 27 25 26 28 26 24 22 20 20 21 24 26 24 26 25 22 21 22 22 21 18 16 17 19 17
7 6 6 5 6 6 8 10 9 7 6 5 4 6 7 8 9 9 9 10 11 12 12 11 12 12 12 13 14 16 17 17 16 17 17 17 18 19 20 21 21 22 23 23 24 26 27 28 29 30 31 32 33 33 32 31 30 31 32 31 30 30 28 27 28 29 26 23 24 24 24 26 27 28 27 24 24 23 23 22 21 18 18 20 18
Wind_Direction
218 186 168 165 165 155 148 141 143 144 145 147 148 151 150 150 144 134 123 112 100 96 102 100 95 92 89 91 95 98 100 100 100 100 98 95 93 91 89 90 90 91 91 91 92 94 95 94 94 93 93 92 91 92 92 91 90 90 89 90 90 88 85 83 81 81 83 84 83 80 74 69 66 61 55 49 53 53 41 38 47 65 68 66 67
211 189 168 162 164 157 148 143 144 145 147 150 153 155 156 155 147 140 129 117 104 103 108 105 99 95 94 95 99 101 102 101 99 100 100 98 95 93 91 91 90 91 92 91 93 94 96 97 96 96 94 90 91 94 95 93 91 90 91 91 89 88 84 78 74 70 68 69 72 73 66 61 65 62 57 54 48 46 43 42 58 73 73 71 70
201 183 166 160 161 156 149 145 145 148 150 153 157 159 160 157 150 145 135 123 109 111 116 111 103 101 101 100 102 105 106 103 101 103 103 100 97 94 91 90 90 90 92 92 93 94 96 97 96 96 93 91 92 95 96 95 93 92 92 91 91 89 81 75 71 66 60 56 54 56 62 59 65 66 60 58 54 55 56 59 73 75 73 75 72
199 183 166 158 158 155 150 146 147 150 153 158 160 163 162 160 155 149 140 127 114 118 122 116 109 107 108 106 107 109 110 108 106 106 104 102 98 95 93 92 93 92 92 92 91 91 93 94 94 94 93 93 93 95 96 95 93 92 92 91 94 89 80 76 72 68 60 53 43 35 53 66 67 69 67 69 70 73 74 77 80 75 72 76 76
202 184 165 157 157 155 152 148 150 154 157 162 163 165 164 162 159 153 144 129 120 124 128 122 115 113 114 114 114 113 114 113 110 109 106 103 101 98 97 97 96 96 93 91 91 90 89 91 92 92 94 94 94 94 94 94 91 87 87 89 92 87 82 78 75 73 67 61 50 28 32 63 76 77 76 79 81 82 82 84 83 78 73 74 77
187 171 163 160 158 155 154 152 153 158 161 165 166 166 166 165 162 156 147 134 128 129 134 129 121 118 118 120 121 119 118 119 113 111 109 106 105 103 102 101 101 100 96 94 92 90 88 90 90 91 93 93 92 91 91 89 86 82 83 88 91 90 85 78 73 74 72 68 65 42 23 57 87 84 80 83 84 84 83 85 85 81 77 73 75
171 157 159 163 161 157 154 155 156 161 165 167 168 167 167 166 165 159 149 138 135 135 140 135 128 124 121 124 126 125 123 122 116 114 114 111 111 110 109 108 109 107 101 97 96 96 94 92 91 90 90 91 90 88 88 86 86 85 85 89 91 91 86 79 75 74 74 75 78 63 37 78 96 88 83 86 87 87 85 85 84 82 79 75 73
155 147 157 167 163 157 154 157 158 163 167 168 169 168 168 167 167 161 153 147 140 141 146 142 135 128 124 126 128 129 128 126 121 120 119 119 119 118 119 118 115 110 105 97 96 99 97 98 94 89 88 91 93 91 91 90 91 90 94 96 93 91 88 85 81 78 76 79 80 50 67 99 96 91 89 90 93 94 91 87 85 81 78 75 73
140 148 166 171 164 158 155 159 160 164 168 169 170 169 169 168 169 166 160 153 147 148 151 149 142 134 129 128 128 130 132 132 127 125 126 127 127 125 125 122 121 114 109 103 96 95 93 94 94 93 93 95 96 97 96 94 93 96 102 101 94 90 88 87 88 91 93 98 96 83 99 104 96 95 93 94 96 96 93 89 86 81 79 76 72
147 163 178 178 166 159 154 158 160 163 166 169 171 170 170 172 174 173 170 160 154 153 155 155 149 141 134 133 130 127 133 135 132 130 129 131 132 129 126 125 128 121 113 104 98 94 92 91 94 96 94 96 98 98 98 96 98 101 105 103 96 92 88 87 90 101 115 123 123 118 117 107 103 101 98 99 98 95 93 90 85 81 79 75 70
155 171 186 194 173 157 152 157 158 161 164 168 170 172 175 176 181 178 175 165 157 155 158 159 156 150 142 138 131 126 128 132 135 134 129 130 132 128 129 131 129 122 111 100 98 97 95 93 92 94 95 98 100 101 100 99 103 104 104 102 98 95 92 90 86 90 109 123 133 132 123 112 108 105 103 102 98 96 93 89 83 80 77 72 68
158 175 192 190 170 155 151 155 154 157 158 163 166 169 174 177 181 178 174 163 157 157 158 162 163 157 149 143 134 127 124 124 128 131 131 130 131 131 133 131 125 121 113 101 100 99 97 94 92 94 98 102 103 104 103 104 110 108 104 101 97 94 94 94 93 95 97 105 122 122 119 115 110 108 106 103 101 99 94 88 81 80 76 70 66
161 177 176 161 159 152 150 152 151 154 153 158 160 163 168 166 168 166 164 154 154 161 160 164 165 160 152 146 141 133 126 120 118 120 127 130 132 133 133 129 124 122 114 104 100 98 98 97 97 99 104 107 106 106 104 109 118 114 107 103 100 97 96 95 101 111 104 100 112 116 116 113 110 110 108 106 105 100 94 88 82 80 76 71 64
167 180 164 154 154 145 145 148 147 149 148 149 149 151 150 147 153 152 150 147 154 163 164 167 166 161 154 150 148 140 131 125 121 116 122 132 134 135 134 129 125 123 115 106 99 97 100 101 103 105 108 110 110 109 107 113 121 118 111 108 104 101 99 96 96 103 111 119 117 117 117 114 114 114 112 110 107 101 96 89 85 81 76 72 63
173 174 163 159 152 142 141 142 142 143 138 138 139 139 137 137 142 143 143 146 157 166 171 173 169 162 156 155 152 146 139 134 133 125 124 133 138 139 135 130 128 124 116 107 100 99 102 105 108 110 113 114 113 113 114 118 122 120 115 112 107 106 104 100 99 103 119 126 117 119 120 118 118 116 115 112 109 104 98 91 87 82 77 71 63
170 160 156 157 152 144 141 140 139 135 132 133 133 132 134 137 139 143 148 155 165 172 177 179 173 165 159 158 155 152 149 144 145 137 131 137 143 143 137 134 131 126 119 110 105 103 105 110 114 117 118 118 117 116 120 123 124 122 118 114 109 107 102 99 104 110 116 123 123 127 127 125 121 118 116 114 111 104 98 93 90 83 77 70 65
161 157 151 152 152 150 147 142 136 133 134 130 128 130 134 139 142 146 153 161 170 176 181 182 172 162 156 156 157 157 156 152 155 149 139 144 150 146 143 142 134 129 123 115 112 111 112 118 122 124 124 124 123 119 123 126 126 123 120 118 113 111 110 112 114 112 122 141 135 133 132 132 129 125 121 118 114 106 99 92 90 85 79 73 69
156 155 148 151 153 154 152 144 139 140 138 131 127 128 133 139 143 146 152 158 166 175 177 177 164 153 147 148 154 156 157 159 162 165 152 150 156 155 151 149 142 136 130 123 121 119 119 124 129 132 131 130 129 125 124 125 125 124 122 119 114 115 115 111 113 132 156 153 135 136 138 139 138 132 128 124 117 108 100 95 94 85 79 75 70
150 144 140 148 152 152 150 145 144 142 136 132 131 131 131 132 134 138 141 145 151 155 149 148 141 133 132 136 150 151 152 163 168 173 168 158 161 165 160 157 154 147 141 133 127 127 126 128 135 139 137 134 134 132 129 127 127 126 124 117 110 108 100 93 105 167 167 145 137 144 149 151 150 139 136 135 122 111 105 101 92 84 83 80 75
146 133 127 141 150 146 146 149 146 141 138 136 135 132 130 129 131 133 133 135 134 131 127 123 116 119 124 124 122 109 120 155 176 182 185 175 168 174 173 165 163 161 155 144 134 132 130 130 137 141 142 139 137 137 135 134 133 133 129 121 117 112 104 115 153 196 174 148 149 155 164 165 159 154 154 149 132 119 110 102 92 89 91 88 82
136 125 121 141 146 138 142 151 144 141 144 141 139 134 133 136 134 135 135 133 128 123 120 113 113 119 111 92 66 52 53 92 172 185 198 205 183 180 182 175 172 172 168 157 144 135 129 131 134 138 140 139 141 142 140 139 137 138 134 129 124 112 103 128 188 217 189 160 160 164 174 174 170 172 169 160 144 135 124 108 101 99 98 91 85
107 115 125 144 141 136 145 145 140 143 146 144 146 140 141 144 142 143 139 135 128 123 123 119 121 120 98 88 92 93 342 10 323 207 236 241 215 193 195 187 181 182 180 167 154 143 133 129 130 135 134 134 141 143 143 142 140 138 134 135 130 115 108 135 217 219 179 158 168 177 188 190 183 179 173 167 157 150 140 125 117 108 102 93 86
97 112 127 148 146 146 148 146 150 154 155 155 153 147 147 148 144 140 132 129 125 126 130 123 123 131 132 154 169 217 248 241 292 332 318 277 247 209 209 202 191 188 187 175 163 153 141 138 136 134 128 130 129 127 141 140 134 130 132 140 126 106 106 151 239 226 169 159 181 194 205 206 196 185 176 170 164 159 148 137 127 112 104 98 91
109 128 140 159 159 152 149 154 162 165 168 169 161 154 154 155 151 140 131 126 129 139 140 138 177 198 197 212 216 228 236 224 218 242 250 281 280 225 207 213 206 195 193 183 170 160 155 153 145 140 134 136 127 106 121 134 128 115 107 115 105 89 95 180 245 234 167 166 189 200 213 218 210 195 185 176 169 159 149 137 122 112 109 101 92
135 152 152 154 153 151 155 162 174 177 173 173 170 160 159 165 167 161 148 146 153 160 167 190 211 212 202 207 219 223 228 229 227 224 223 245 259 248 226 219 214 204 196 188 180 173 167 164 156 147 131 129 123 102 122 153 115 87 82 111 105 103 136 210 250 245 175 179 195 202 222 226 214 199 194 186 173 158 152 141 124 119 113 102 92
146 148 147 148 148 153 165 168 181 181 169 172 177 168 167 168 172 179 167 164 172 168 196 221 214 210 208 206 213 220 223 227 234 229 221 227 229 240 264 235 217 208 196 190 194 188 179 175 167 154 128 125 122 129 225 283 73 124 202 139 101 113 162 216 250 254 212 208 210 210 225 224 215 208 202 187 170 163 158 145 130 124 114 101 93
133 141 148 157 156 158 168 167 173 180 175 176 176 171 174 168 174 188 178 177 184 176 198 216 210 212 219 219 219 225 227 231 240 234 224 230 231 218 242 257 226 211 195 194 210 201 190 187 179 168 142 129 128 153 207 233 142 208 215 141 108 145 189 227 255 263 245 224 225 225 229 230 225 213 203 192 176 167 159 145 131 121 112 100 93
133 142 146 158 161 155 158 157 163 183 185 178 172 169 176 175 179 189 183 188 195 186 195 209 213 216 221 227 231 237 241 245 244 236 230 232 231 213 212 248 231 219 206 204 222 215 198 197 194 180 143 136 167 177 202 203 180 203 205 152 142 180 184 222 261 272 261 236 243 241 235 239 237 221 207 195 180 170 159 144 132 121 109 98 89
135 136 137 148 151 143 145 154 164 181 182 175 174 166 174 181 177 183 183 193 202 194 198 211 217 219 223 229 235 240 248 253 243 237 239 233 226 217 223 234 214 209 213 222 230 220 205 211 208 186 169 199 194 183 203 206 195 203 199 170 175 185 176 195 242 279 291 273 261 253 241 240 243 231 214 192 177 169 157 144 135 123 108 96 87
118 119 127 135 140 140 141 149 153 160 160 158 160 145 157 174 164 170 177 189 202 202 212 219 220 224 232 237 237 241 252 254 244 241 241 233 225 220 219 221 214 208 208 223 230 215 208 218 216 201 199 207 198 193 208 211 205 203 193 189 198 194 186 189 212 278 292 290 288 273 241 233 242 233 217 192 176 169 158 150 138 123 107 96 88
111 114 122 132 140 134 133 140 135 135 139 143 148 143 159 176 167 176 187 191 196 205 221 225 223 227 234 240 241 245 251 248 245 246 239 232 228 222 214 209 212 215 212 220 225 215 208 215 218 211 201 194 197 202 208 222 217 202 195 197 200 196 195 177 166 247 273 277 290 284 236 208 219 213 202 194 183 175 164 153 141 124 111 100 94
110 114 118 127 132 128 131 141 135 129 137 147 153 151 158 166 177 225 232 209 203 211 225 238 239 238 235 239 242 243 246 240 241 245 238 233 225 216 214 210 206 211 220 221 219 217 212 215 216 208 198 195 201 199 201 228 227 212 210 198 190 196 198 177 167 209 249 260 269 263 224 185 180 185 183 191 188 181 175 164 151 134 120 108 102
100 105 110 111 112 125 128 137 142 132 135 141 150 160 158 164 187 224 244 226 226 231 229 244 255 262 258 251 246 242 244 238 237 243 241 236 225 216 218 217 211 211 227 230 221 220 220 221 217 202 196 197 203 197 196 221 222 212 215 206 202 194 183 189 182 196 237 256 260 236 211 191 178 178 173 179 184 184 183 178 169 152 137 123 114
102 106 114 115 115 132 125 130 135 126 132 139 163 178 175 187 192 197 218 221 233 240 230 238 262 272 270 264 256 242 241 238 234 239 242 240 233 232 229 224 223 221 232 236 227 228 229 226 220 208 202 202 208 202 196 215 222 214 209 211 215 190 177 196 188 191 228 255 262 232 209 208 188 181 184 187 187 188 190 190 192 180 162 150 138
106 116 129 137 137 141 133 128 123 125 144 155 180 186 179 189 198 193 201 219 231 229 222 246 279 277 267 259 255 245 242 241 233 232 237 240 238 237 234 230 230 231 234 235 232 237 236 226 223 219 213 213 215 207 199 212 225 222 213 214 220 197 185 198 194 195 222 243 250 249 232 211 195 194 206 209 204 202 201 203 205 195 184 178 172
89 99 118 130 134 136 127 122 124 136 155 169 189 195 199 202 214 224 227 245 251 241 235 251 268 270 265 255 248 245 242 241 238 234 234 238 237 232 233 236 236 237 239 241 241 243 237 226 225 225 220 219 218 213 207 213 224 226 223 222 220 209 195 201 201 192 218 237 237 244 239 217 209 213 220 222 219 215 213 216 213 204 201 198 195
89 85 93 106 116 126 125 128 140 153 174 192 201 203 215 219 228 243 253 257 254 246 240 244 243 251 266 261 251 249 245 243 245 246 243 241 237 230 232 237 237 241 247 248 247 242 234 227 228 228 225 222 219 217 214 216 221 220 224 223 219 219 205 206 206 185 210 240 242 239 233 223 223 225 225 225 224 222 221 222 213 206 206 206 205
102 98 90 96 102 112 120 135 154 170 195 206 215 219 223 234 245 256 260 260 259 254 248 246 241 240 255 259 256 258 255 246 246 251 251 246 239 232 234 237 238 243 248 249 248 240 232 229 230 230 228 226 223 220 218 221 223 221 226 223 219 223 210 207 208 183 195 228 241 240 231 225 230 230 223 220 226 225 220 220 214 209 208 206 204
100 101 95 98 98 103 120 145 162 170 196 210 223 230 234 249 255 258 258 259 263 263 260 254 249 244 246 252 254 259 261 254 251 255 255 249 240 235 236 239 241 245 250 253 248 238 234 232 230 230 228 229 227 223 223 226 228 227 230 226 221 225 216 212 207 187 192 211 227 240 239 230 230 231 226 221 229 225 216 219 216 212 206 199 196
106 108 106 108 109 114 130 166 176 175 188 200 227 236 240 256 255 254 256 262 271 268 263 258 256 256 253 250 249 247 250 256 256 253 253 248 241 238 236 237 241 245 251 255 247 238 238 235 233 236 235 232 231 228 227 228 230 233 238 236 229 226 222 217 205 192 197 212 217 219 234 236 226 226 229 227 229 225 219 219 215 209 199 192 187
113 115 117 120 126 142 166 189 204 212 211 199 210 224 226 248 256 259 262 272 283 273 261 256 255 259 262 259 259 250 238 251 260 255 253 248 244 242 239 239 242 244 248 250 243 238 239 236 238 241 242 240 237 236 232 229 232 233 237 240 235 231 229 221 209 200 203 220 219 205 218 232 225 222 224 225 228 224 223 222 215 205 195 193 189
116 125 129 132 135 148 162 176 317 308 246 191 193 209 219 244 259 262 259 258 268 269 265 262 261 266 272 272 272 265 246 256 263 260 260 255 249 245 242 243 244 244 246 244 239 237 237 239 241 243 243 242 240 239 236 233 234 230 227 235 238 239 240 230 216 208 206 219 221 210 217 225 225 224 217 218 225 223 221 219 215 206 196 195 191
123 135 138 143 152 156 133 108 324 317 337 44 185 209 226 253 271 272 269 272 275 280 286 284 282 282 280 278 275 266 256 257 259 261 266 262 254 250 248 246 245 245 247 245 242 240 239 241 244 245 244 242 240 239 239 237 235 231 224 227 236 241 242 232 222 217 213 215 216 215 221 221 222 225 217 215 220 220 218 212 212 210 203 198 192
136 144 143 139 145 161 140 125 193 55 344 330 342 210 242 266 279 283 284 288 291 293 295 294 296 295 288 283 277 266 255 252 255 262 267 266 262 258 255 251 246 246 249 249 246 243 242 243 244 245 244 242 241 240 239 236 232 230 223 219 227 236 238 233 230 227 222 218 214 212 217 219 219 223 221 215 210 215 222 216 210 210 207 202 193
131 141 154 140 137 146 147 152 166 139 253 297 339 300 273 277 281 287 288 289 295 295 290 291 296 295 293 290 283 272 256 249 254 259 265 270 270 266 261 256 250 248 251 251 248 246 246 245 244 244 243 242 243 243 241 235 231 232 230 223 219 227 234 237 240 235 225 223 220 212 215 220 218 221 221 209 202 212 220 219 210 205 203 197 191
122 122 146 148 146 135 120 138 162 201 219 252 291 289 279 276 275 284 289 293 295 288 280 277 280 284 288 291 288 279 265 256 256 261 266 269 270 270 267 263 259 256 256 254 250 249 249 249 248 246 244 242 242 244 242 237 233 233 233 231 227 232 240 240 239 235 227 224 221 214 219 221 214 220 224 208 202 210 212 216 211 200 197 193 194
96 220 245 232 232 235 234 211 202 239 245 243 253 268 290 283 282 288 288 287 284 282 284 285 287 289 286 289 291 283 274 266 262 263 268 269 269 271 269 266 265 263 260 258 255 253 252 252 252 250 247 243 241 242 241 237 235 231 231 232 234 239 243 241 237 236 231 224 219 215 219 222 213 220 226 209 205 210 206 214 213 201 199 193 196
50 344 272 252 248 246 248 244 235 251 256 240 242 247 258 268 281 290 286 285 286 287 290 291 292 291 289 296 300 292 283 274 265 260 263 267 270 272 272 270 269 267 264 262 260 257 253 252 251 251 249 244 240 241 241 237 236 234 232 232 234 237 237 238 240 238 233 227 223 218 217 221 215 218 225 210 207 211 204 213 218 206 199 191 195
36 12 346 354 357 13 5 317 271 261 256 229 232 244 253 253 255 266 273 278 282 284 286 286 287 287 289 295 295 290 287 282 273 266 261 262 264 268 273 273 272 270 266 264 264 261 256 253 251 251 248 245 241 241 241 240 238 238 235 232 234 236 233 233 235 236 234 231 230 223 217 219 214 215 220 207 207 214 206 211 220 213 200 192 196
28 8 6 19 16 17 16 359 345 334 317 267 243 247 252 251 249 251 258 266 268 270 273 275 280 285 289 294 291 284 281 280 279 277 273 269 265 265 271 274 274 272 267 263 263 262 260 257 256 254 250 247 243 241 241 241 241 240 237 235 236 235 230 229 232 236 235 231 231 226 219 220 216 214 214 203 207 215 209 208 212 212 202 194 198
31 20 20 26 15 18 24 9 355 354 347 322 292 272 261 258 256 255 260 268 270 272 274 275 279 281 281 285 286 282 279 277 276 276 277 278 274 269 271 274 272 270 269 266 262 261 261 261 260 258 254 248 244 243 243 242 241 239 238 237 237 235 232 233 235 236 235 230 229 225 220 222 220 216 213 205 206 213 210 208 205 207 209 202 198